Location: Byszew
(52.1813°N, 19.2693°E)
Time: 17:58:09
(UTC+00:00)

Ariane Rocket - Pass Details

Date: 03 March 2021
Orbit: 759 x 771 km, 98.7° (Epoch: 16 April)

Event Time Altitude Azimuth Distance (km) Brightness Sun altitude
Exits shadow 17:01:54 - 112° (ESE) 2,787 5.3 -6.3°
Reaches altitude 10° 17:03:23 10° 103° (ESE) 2,317 4.9 -6.5°
Maximum altitude 17:07:09 21° 55° (NE) 1,676 4.3 -7.1°
Drops below altitude 10° 17:10:54 10° 8° (N) 2,325 5.4 -7.6°
Sets 17:13:42 0° 353° (N) 3,255 6.3 -8.1°
